Regional Weather Roundup
Issued by NWS Newport/Morehead, NC

Current Version | Previous Version | Graphics & Text | Print | Product List | Glossary On
Versions: 1 2 3 4 5 6 7 8 9 10 11 12 13 14 15 16 17 18 19 20 21 22 23 24 25 26 27 28 29 30 31 32 33 34 35 36 37 38 39 40 41 42 43 44 45 46 47 48 49 50
000 ASUS42 KMHX 290225 RWRMHX WEATHER ROUNDUP FOR EASTERN NORTH CAROLINA NATIONAL WEATHER SERVICE NEWPORT/MOREHEAD CITY NC 1000 PM EDT SUN AUG 28 2016 NOTE: "FAIR" INDICATES FEW OR NO CLOUDS BELOW 12,000 FEET WITH NO SIGNIFICANT WEATHER AND/OR OBSTRUCTIONS TO VISIBILITY NCZ015>017-031-032-045>047-102-103-290300- NORTH COAST CITY SKY/WX TMP DP RH WIND PRES REMARKS EDENTON CLOUDY 78 78 100 NE5 30.12F ELIZABETH CITY PTCLDY 77 74 90 NE10 30.12F KITTY HAWK MOCLDY 79 79 100 NE5 30.10S MANTEO CLOUDY 79 77 95 NE9 30.11S $$ NCZ045>047-081-094-103-104-290300- CENTRAL COAST CITY SKY/WX TMP DP RH WIND PRES REMARKS FRISCO CLOUDY 79 76 90 NE5 30.09S $$ NCZ095-097-098-100-101-290300- SOUTHERN COAST CITY SKY/WX TMP DP RH WIND PRES REMARKS BEAUFORT PTCLDY 78 77 96 NE5 30.09R CEDAR ISLAND NOT AVBL JACKSONVILLE PTCLDY 77 74 90 NE9 30.09R PINEY ISLAND NOT AVBL WILMINGTON CLOUDY 76 74 93 NE6 30.09R $$ NCZ011>013-027>030-043-044-078>080-089-090>093-098-290300- COASTAL PLAIN CITY SKY/WX TMP DP RH WIND PRES REMARKS AHOSKIE MOCLDY 74 70 87 NE3 30.14R CLINTON CLOUDY 75 75 99 CALM 30.12R ELIZABETHTOWN PTCLDY 75 75 99 CALM 30.11S GOLDSBORO CLOUDY 76 76 100 E6 30.11R GREENVILLE MOCLDY 77 75 94 NE6 30.13S HAVELOCK PTCLDY 78 75 90 N8 30.11R KENANSVILLE CLOUDY 75 73 94 CALM 30.12R KINSTON MOCLDY 75 75 100 NE5 30.13R NEW BERN PTCLDY 76 74 93 NE5 30.12R RICHLANDS PTCLDY 75 74 96 NE5 30.11R ROCKY MOUNT CLOUDY 77 72 84 CALM 30.13R WASHINGTON PTCLDY 74 74 97 NE6 30.12R WHITEVILLE CLEAR 76 73 91 CALM 30.10R $$ AMZ130-135-150-152-154-156-158-170-250-252-270-ANZ085-086-088-633-658-670-290300- MARINE OBSERVATIONS STATION/POSITION TIME TEMP WIND PRES WAVE SWELL AIR SEA DIR/SP/G HT/PER HT/PER (UTC) (F) (DEG/KT/KT) (MB) (FT/S) (FT/S) CHESAPEAKE LIGHT NOT AVBL 64 E VA BEACH 0150 80 81 80/ 14/ 17 1019.3 5/ 6 3/ 8 DUCK 0200 79 78 40/ 14/ 16 1019.1 2 E DUCK 0111 79 N/A 4/ 5 OREGON INLET 0100 80 81 1019.3 13E OREGON INLT 0200 81 N/A 4/ 6 3/ 6 HATTERAS CG 0200 81 83 50/ 5/ 8 1018.6 DIAMOND BUOY 0150 82 85 60/ 6/ 8 1018.6 3/15 3/15 CAPE LOOKOUT 0200 82 70/ 12/ 14 1018.2 BEAUFORT LAB 0200 79 82 20/ 4/ 5 1018.3 30 SE NEW RVR IN 0208 84 84 70/ 14/ 17 1018.3 30 SE NEW RVR IN 0125 84 N/A 3/ 8 27 SE WRIGHTSVLE 0208 83 83 60/ 12/ 16 1018.5 5 SE WRIGHTSVLE 0208 81 83 50/ 14/ 17 1019.5 225 S CAPE HAT 0150 83 84 40/ 12/ 16 1016.5 4/14 3/14 41 SE CHARLESTON 0150 83 85 60/ 14/ 17 1017.0 3/ 8 2/ 8 $$

USA.gov is the U.S. government's official web portal to all federal, state and local government web resources and services.